When you browse on this site, cookies collect data to enhance your experience and personalize the content and advertising you see.
Visit our Privacy Policy to learn more. By continuing to use the site, you agree to this use of cookies and data.
  • In Spain
  • List of Countries
  • For 7 days
  • Water Temperature
  • Weather Map
  • Weather Widgets
  • user-avatar
    Login

    Hourly Weather Sabadell

    Today, 5 June, Friday

    Time Temperature Precipitation Wind Pressure Humidity
    00:00 +16°C° 0 mm 1 mps 736 mmHg 75%
    01:00 +16°C° 0 mm 1 mps 736 mmHg 75%
    02:00 +16°C° 0 mm 1 mps 736 mmHg 74%
    03:00 +16°C° 0 mm 1 mps 736 mmHg 74%
    04:00 +16°C° 0 mm 1 mps 737 mmHg 72%
    05:00 +16°C° 0 mm 1 mps 737 mmHg 70%
    06:00 +18°C° 0 mm 1 mps 738 mmHg 67%
    07:00 +19°C° 0 mm 1 mps 738 mmHg 61%
    08:00 +21°C° 0 mm 1 mps 738 mmHg 56%
    09:00 +22°C° 0 mm 1 mps 739 mmHg 50%
    10:00 +23°C° 0 mm 2 mps 739 mmHg 46%
    11:00 +24°C° 0 mm 2 mps 739 mmHg 42%
    12:00 +26°C° 0 mm 3 mps 739 mmHg 38%
    13:00 +26°C° 0 mm 3 mps 739 mmHg 38%
    14:00 +26°C° 0 mm 3 mps 739 mmHg 39%
    15:00 +26°C° 0 mm 3 mps 739 mmHg 39%
    16:00 +25°C° 0 mm 3 mps 739 mmHg 43%
    17:00 +25°C° 0 mm 3 mps 739 mmHg 47%
    18:00 +24°C° 0 mm 3 mps 739 mmHg 51%
    19:00 +22°C° 0 mm 3 mps 740 mmHg 57%
    20:00 +20°C° 0 mm 3 mps 740 mmHg 62%
    21:00 +19°C° 0 mm 2 mps 740 mmHg 68%
    22:00 +19°C° 0 mm 2 mps 740 mmHg 70%
    23:00 +19°C° 0 mm 2 mps 740 mmHg 71%

    Tomorrow, 6 June, Saturday

    Time Temperature Precipitation Wind Pressure Humidity
    00:00 +19°C° 0 mm 2 mps 740 mmHg 73%
    01:00 +18°C° 0 mm 2 mps 740 mmHg 74%
    02:00 +18°C° 0 mm 2 mps 740 mmHg 74%
    03:00 +18°C° 0 mm 2 mps 740 mmHg 75%
    04:00 +18°C° 0 mm 2 mps 739 mmHg 73%
    05:00 +19°C° 0 mm 2 mps 739 mmHg 71%
    06:00 +19°C° 0 mm 2 mps 739 mmHg 70%
    07:00 +21°C° 0 mm 2 mps 739 mmHg 65%
    08:00 +22°C° 0 mm 3 mps 740 mmHg 60%
    09:00 +24°C° 0 mm 3 mps 740 mmHg 56%
    10:00 +25°C° 0 mm 4 mps 739 mmHg 54%
    11:00 +26°C° 0 mm 4 mps 739 mmHg 53%
    12:00 +27°C° 0 mm 5 mps 739 mmHg 52%
    13:00 +26°C° 0.1 mm 5 mps 739 mmHg 55%
    14:00 +26°C° 0.1 mm 4 mps 738 mmHg 58%
    15:00 +25°C° 0.1 mm 4 mps 738 mmHg 62%
    16:00 +25°C° 0.1 mm 4 mps 738 mmHg 64%
    17:00 +23°C° 0.1 mm 4 mps 737 mmHg 67%
    18:00 +22°C° 0.1 mm 3 mps 737 mmHg 69%
    19:00 +21°C° 0.1 mm 3 mps 737 mmHg 74%
    20:00 +20°C° 0.1 mm 3 mps 737 mmHg 78%
    21:00 +20°C° 0.1 mm 2 mps 737 mmHg 82%
    22:00 +19°C° 0.1 mm 2 mps 737 mmHg 81%
    23:00 +19°C° 0.1 mm 2 mps 737 mmHg 81%

    Day after tomorrow, 7 June, Sunday

    Time Temperature Precipitation Wind Pressure Humidity
    00:00 +19°C° 0.1 mm 2 mps 737 mmHg 80%
    01:00 +19°C° 0 mm 2 mps 737 mmHg 80%
    02:00 +19°C° 0 mm 2 mps 737 mmHg 81%
    03:00 +18°C° 0 mm 2 mps 736 mmHg 82%
    04:00 +18°C° 0.4 mm 2 mps 737 mmHg 81%
    05:00 +19°C° 0.4 mm 2 mps 737 mmHg 80%
    06:00 +19°C° 0.4 mm 2 mps 737 mmHg 78%
    07:00 +20°C° 0.9 mm 2 mps 737 mmHg 75%
    08:00 +20°C° 0.9 mm 2 mps 738 mmHg 72%
    09:00 +21°C° 0.9 mm 2 mps 738 mmHg 68%
    10:00 +21°C° 0.6 mm 3 mps 738 mmHg 66%
    11:00 +22°C° 0.6 mm 3 mps 738 mmHg 64%
    12:00 +22°C° 0.6 mm 4 mps 738 mmHg 62%
    13:00 +22°C° 0.6 mm 4 mps 739 mmHg 61%
    14:00 +22°C° 0.6 mm 5 mps 739 mmHg 61%
    15:00 +22°C° 0.6 mm 5 mps 739 mmHg 61%
    16:00 +21°C° 0.1 mm 5 mps 739 mmHg 61%
    17:00 +21°C° 0.1 mm 4 mps 739 mmHg 61%
    18:00 +21°C° 0.1 mm 4 mps 739 mmHg 61%
    19:00 +20°C° 0.1 mm 3 mps 740 mmHg 63%
    20:00 +19°C° 0.1 mm 3 mps 740 mmHg 65%
    21:00 +19°C° 0.1 mm 2 mps 740 mmHg 67%
    22:00 +19°C° 0 mm 2 mps 740 mmHg 68%
    23:00 +18°C° 0 mm 2 mps 740 mmHg 69%

    8 June, Monday

    Time Temperature Precipitation Wind Pressure Humidity
    00:00 +18°C° 0 mm 2 mps 740 mmHg 70%
    01:00 +18°C° 0.2 mm 2 mps 740 mmHg 72%
    02:00 +18°C° 0.2 mm 2 mps 740 mmHg 75%
    03:00 +17°C° 0.2 mm 2 mps 740 mmHg 77%
    04:00 +18°C° 0.7 mm 1 mps 740 mmHg 79%
    05:00 +18°C° 0.7 mm 1 mps 740 mmHg 81%
    06:00 +16°C° 0.7 mm 1 mps 740 mmHg 84%
    07:00 +16°C° 1.7 mm 1 mps 740 mmHg 83%
    08:00 +16°C° 1.7 mm 1 mps 741 mmHg 82%
    09:00 +16°C° 1.7 mm 1 mps 741 mmHg 81%
    10:00 +16°C° 1.3 mm 2 mps 741 mmHg 80%
    11:00 +16°C° 1.3 mm 2 mps 741 mmHg 79%
    12:00 +17°C° 1.3 mm 3 mps 741 mmHg 78%
    13:00 +17°C° 0.2 mm 3 mps 741 mmHg 74%
    14:00 +17°C° 0.2 mm 3 mps 741 mmHg 70%
    15:00 +18°C° 0.2 mm 3 mps 740 mmHg 66%
    16:00 +18°C° 0 mm 2 mps 740 mmHg 65%
    17:00 +18°C° 0 mm 2 mps 740 mmHg 63%
    18:00 +19°C° 0 mm 1 mps 740 mmHg 62%
    19:00 +18°C° 0 mm 1 mps 741 mmHg 65%
    20:00 +18°C° 0 mm 1 mps 741 mmHg 68%
    21:00 +16°C° 0 mm 1 mps 742 mmHg 72%
    22:00 +16°C° 0 mm 1 mps 742 mmHg 73%
    23:00 +16°C° 0 mm 1 mps 742 mmHg 74%

    9 June, Tuesday

    Time Temperature Precipitation Wind Pressure Humidity
    00:00 +16°C° 0 mm 1 mps 742 mmHg 76%
    01:00 +15°C° 0 mm 1 mps 742 mmHg 76%
    02:00 +15°C° 0 mm 1 mps 742 mmHg 77%
    03:00 +15°C° 0 mm 1 mps 742 mmHg 77%
    04:00 +16°C° 0 mm 1 mps 742 mmHg 74%
    05:00 +16°C° 0 mm 1 mps 742 mmHg 71%
    06:00 +18°C° 0 mm 1 mps 742 mmHg 68%
    07:00 +19°C° 0 mm 1 mps 742 mmHg 62%
    08:00 +21°C° 0 mm 1 mps 743 mmHg 56%
    09:00 +22°C° 0 mm 1 mps 743 mmHg 49%
    10:00 +23°C° 0.2 mm 2 mps 743 mmHg 49%
    11:00 +24°C° 0.2 mm 2 mps 743 mmHg 48%
    12:00 +24°C° 0.2 mm 3 mps 743 mmHg 47%
    13:00 +24°C° 0.4 mm 3 mps 742 mmHg 47%
    14:00 +25°C° 0.4 mm 3 mps 742 mmHg 47%
    15:00 +25°C° 0.4 mm 3 mps 742 mmHg 47%
    16:00 +24°C° 0.4 mm 3 mps 742 mmHg 51%
    17:00 +24°C° 0.4 mm 3 mps 742 mmHg 55%
    18:00 +22°C° 0.4 mm 3 mps 742 mmHg 59%
    19:00 +21°C° 1.1 mm 3 mps 742 mmHg 64%
    20:00 +20°C° 1.1 mm 3 mps 743 mmHg 70%
    21:00 +19°C° 1.1 mm 3 mps 743 mmHg 75%
    22:00 +19°C° 0.8 mm 2 mps 743 mmHg 75%
    23:00 +19°C° 0.8 mm 2 mps 743 mmHg 75%

    10 June, Wednesday

    Time Temperature Precipitation Wind Pressure Humidity
    00:00 +19°C° 0.8 mm 1 mps 744 mmHg 75%
    01:00 +19°C° 0.1 mm 1 mps 743 mmHg 75%
    02:00 +18°C° 0.1 mm 2 mps 743 mmHg 75%
    03:00 +17°C° 0.1 mm 2 mps 743 mmHg 75%
    04:00 +18°C° 0.1 mm 2 mps 743 mmHg 73%
    05:00 +18°C° 0.1 mm 2 mps 743 mmHg 70%
    06:00 +18°C° 0.1 mm 2 mps 743 mmHg 68%
    07:00 +19°C° 0.2 mm 2 mps 744 mmHg 64%
    08:00 +21°C° 0.2 mm 2 mps 744 mmHg 59%
    09:00 +23°C° 0.2 mm 2 mps 744 mmHg 55%
    10:00 +24°C° 0.6 mm 2 mps 744 mmHg 54%
    11:00 +24°C° 0.6 mm 3 mps 744 mmHg 53%
    12:00 +25°C° 0.6 mm 3 mps 744 mmHg 52%
    13:00 +25°C° 0.7 mm 3 mps 743 mmHg 53%
    14:00 +24°C° 0.7 mm 3 mps 743 mmHg 54%
    15:00 +24°C° 0.7 mm 3 mps 743 mmHg 55%
    16:00 +22°C° 0.7 mm 3 mps 743 mmHg 59%
    17:00 +21°C° 0.7 mm 3 mps 743 mmHg 63%
    18:00 +20°C° 0.7 mm 3 mps 743 mmHg 68%
    19:00 +20°C° 0.3 mm 2 mps 743 mmHg 69%
    20:00 +19°C° 0.3 mm 2 mps 744 mmHg 70%
    21:00 +19°C° 0.3 mm 2 mps 744 mmHg 72%
    22:00 +19°C° 0.1 mm 1 mps 744 mmHg 73%
    23:00 +19°C° 0.1 mm 1 mps 744 mmHg 73%
    Show more